Date String (YYYY-MM-DD hh:mm:ss) UTC,Instrument flags,Ambient pressure (hPa),Sample flow (lpm),Bypass flow (lpm),Sample temperature (°C),Ambient temperature (°C),ASC tube jacket temperature (°C),LED temperature (°C),Box temperature (°C),Sample RH (%),Span deviation,Mass concentration (μg/m³),Mass concentration (μg/m³),Mass concentration (μg/m³)
DateTimeUTC,F1_M11,P_M11,Q1_M11,Q2_M11,T1_M11,T2_M11,T3_M11,T4_M11,T5_M11,U1_M11,ZSPAN_M11,X0_M11,X2_M11,X1_M11
2022-03-21 04:00:00,,0816.4,4.99,0.00,28.7,27.7,00.0,37.8,30.4,08.2,0000.0,0011.03,0004.23,0002.48
2022-03-21 04:01:00,,0816.5,5.00,0.00,28.7,27.7,00.0,37.8,30.4,08.2,0000.0,0012.04,0004.29,0002.49
2022-03-21 04:02:00,,0816.4,5.00,0.00,28.7,27.7,00.0,37.8,30.4,08.3,0000.0,0012.42,0004.25,0002.49
2022-03-21 04:03:00,,0816.5,5.00,0.00,28.7,27.8,00.0,37.8,30.4,08.3,0000.0,0012.19,0004.23,0002.48
2022-03-21 04:04:00,,0816.5,5.00,0.00,28.7,27.7,00.0,37.8,30.4,08.3,0000.0,0012.16,0004.26,0002.50
2022-03-21 04:05:00,,0816.5,4.99,0.00,28.7,27.7,00.0,37.8,30.4,08.3,0000.0,0012.09,0004.27,0002.48
2022-03-21 04:06:00,,0816.5,5.01,0.00,28.7,27.7,00.0,37.8,30.4,08.2,0000.0,0012.14,0004.26,0002.46
2022-03-21 04:07:00,,0816.6,4.99,0.00,28.7,27.7,00.0,37.8,30.4,08.3,0000.0,0012.36,0004.28,0002.48
2022-03-21 04:08:00,,0816.5,5.02,0.00,28.7,27.8,00.0,37.8,30.4,08.2,0000.0,0012.46,0004.29,0002.51
2022-03-21 04:09:00,,0816.6,4.99,0.00,28.7,27.7,00.0,37.8,30.4,08.2,0000.0,0012.33,0004.30,0002.54
2022-03-21 04:10:00,,0816.6,5.00,0.00,28.7,27.7,00.0,37.8,30.4,08.2,0000.0,0012.18,0004.34,0002.54
2022-03-21 04:11:00,,0816.7,5.01,0.00,28.7,27.7,00.0,37.8,30.3,08.2,0000.0,0011.98,0004.34,0002.55
2022-03-21 04:12:00,,0816.6,4.98,0.00,28.7,27.7,00.0,37.8,30.4,08.1,0000.0,0011.61,0004.31,0002.55
2022-03-21 04:13:00,,0816.6,5.00,0.00,28.7,27.7,00.0,37.8,30.4,08.2,0000.0,0011.29,0004.31,0002.58
2022-03-21 04:14:00,,0816.6,4.98,0.00,28.7,27.7,00.0,37.8,30.4,08.2,0000.0,0011.52,0004.33,0002.61
2022-03-21 04:15:00,,0816.7,5.02,0.00,28.7,27.7,00.0,37.8,30.4,08.1,0000.0,0011.56,0004.37,0002.61
2022-03-21 04:16:00,,0816.7,5.00,0.00,28.7,27.7,00.0,37.7,30.4,08.2,0000.0,0011.56,0004.38,0002.64
2022-03-21 04:17:00,,0816.7,4.99,0.00,28.7,27.7,00.0,37.7,30.4,08.1,0000.0,0011.40,0004.36,0002.66
2022-03-21 04:18:00,,0816.8,5.00,0.00,28.7,27.7,00.0,37.7,30.3,08.1,0000.0,0011.22,0004.33,0002.65
2022-03-21 04:19:00,,0816.8,5.01,0.00,28.7,27.7,00.0,37.7,30.3,08.1,0000.0,0011.24,0004.34,0002.65
2022-03-21 04:20:00,,0816.8,4.99,0.00,28.7,27.7,00.0,37.7,30.4,08.2,0000.0,0011.13,0004.30,0002.62
2022-03-21 04:21:00,,0816.8,5.00,0.00,28.7,27.7,00.0,37.7,30.3,08.2,0000.0,0010.95,0004.31,0002.61
2022-03-21 04:22:00,,0817.0,5.01,0.00,28.7,27.7,00.0,37.7,30.3,08.2,0000.0,0011.13,0004.38,0002.62
2022-03-21 04:23:00,,0817.3,4.99,0.00,28.6,27.7,00.0,37.7,30.3,08.2,0000.0,0010.94,0004.40,0002.62
2022-03-21 04:24:00,,0817.4,5.02,0.00,28.7,27.7,00.0,37.7,30.3,08.3,0000.0,0010.71,0004.39,0002.61
2022-03-21 04:25:00,,0817.4,5.00,0.00,28.7,27.7,00.0,37.7,30.3,08.3,0000.0,0010.40,0004.40,0002.60
2022-03-21 04:26:00,,0817.3,5.00,0.00,28.7,27.6,00.0,37.7,30.3,08.3,0000.0,0010.68,0004.42,0002.61
2022-03-21 04:27:00,,0817.1,5.01,0.00,28.7,27.6,00.0,37.7,30.3,08.3,0000.0,0010.76,0004.44,0002.60
2022-03-21 04:28:00,,0817.0,5.00,0.00,28.7,27.6,00.0,37.7,30.3,08.3,0000.0,0010.83,0004.42,0002.59
2022-03-21 04:29:00,,0817.3,5.01,0.00,28.6,27.6,00.0,37.7,30.3,08.4,0000.0,0010.99,0004.42,0002.58
2022-03-21 04:30:00,,0817.1,5.00,0.00,28.6,27.6,00.0,37.7,30.3,08.4,0000.0,0010.89,0004.38,0002.56
2022-03-21 04:31:00,,0817.0,4.98,0.00,28.6,27.6,00.0,37.7,30.3,08.4,0000.0,0010.84,0004.35,0002.55
2022-03-21 04:32:00,,0816.9,5.00,0.00,28.6,27.6,00.0,37.7,30.3,08.5,0000.0,0010.73,0004.31,0002.56
2022-03-21 04:33:00,,0816.9,5.01,0.00,28.6,27.6,00.0,37.7,30.2,08.6,0000.0,0010.26,0004.23,0002.52
2022-03-21 04:34:00,,0816.9,4.99,0.00,28.6,27.6,00.0,37.7,30.2,08.6,0000.0,0009.84,0004.17,0002.48
2022-03-21 04:35:00,,0816.9,5.02,0.00,28.6,27.6,00.0,37.7,30.2,08.7,0000.0,0009.82,0004.15,0002.45
2022-03-21 04:36:00,,0816.9,5.00,0.00,28.6,27.5,00.0,37.7,30.2,08.8,0000.0,0010.01,0004.15,0002.42
2022-03-21 04:37:00,,0816.9,4.99,0.00,28.6,27.5,00.0,37.7,30.2,08.8,0000.0,0009.76,0004.07,0002.38
2022-03-21 04:38:00,,0816.9,5.01,0.00,28.6,27.5,00.0,37.7,30.3,08.7,0000.0,0009.64,0004.04,0002.36
2022-03-21 04:39:00,,0816.9,5.00,0.00,28.6,27.5,00.0,37.7,30.3,08.6,0000.0,0009.51,0004.01,0002.35
2022-03-21 04:40:00,,0816.9,5.00,0.00,28.6,27.5,00.0,37.6,30.2,08.5,0000.0,0009.21,0003.98,0002.33
2022-03-21 04:41:00,,0816.9,5.00,0.00,28.6,27.5,00.0,37.6,30.2,08.4,0000.0,0009.44,0004.01,0002.32
2022-03-21 04:42:00,,0816.9,5.01,0.00,28.6,27.5,00.0,37.6,30.2,08.3,0000.0,0009.50,0004.04,0002.29
2022-03-21 04:43:00,,0817.0,4.99,0.00,28.5,27.5,00.0,37.6,30.2,08.2,0000.0,0009.54,0004.03,0002.28
2022-03-21 04:44:00,,0816.9,5.00,0.00,28.5,27.5,00.0,37.6,30.2,09.0,0000.0,0009.57,0004.03,0002.28
2022-03-21 04:45:00,,0817.0,5.01,0.00,28.5,27.5,00.0,37.6,30.2,08.8,0000.0,0009.50,0004.02,0002.29
2022-03-21 04:46:00,,0817.1,4.99,0.00,28.5,27.5,00.0,37.6,30.2,08.5,0000.0,0009.53,0004.04,0002.30
2022-03-21 04:47:00,,0817.2,5.00,0.00,28.5,27.5,00.0,37.6,30.2,08.4,0000.0,0009.26,0004.02,0002.30
2022-03-21 04:48:00,,0817.4,5.02,0.00,28.5,27.5,00.0,37.6,30.2,08.3,0000.0,0008.90,0003.99,0002.29
2022-03-21 04:49:00,,0817.1,4.99,0.00,28.5,27.5,00.0,37.6,30.2,08.3,0000.0,0008.85,0003.98,0002.28
2022-03-21 04:50:00,,0817.1,5.00,0.00,28.5,27.5,00.0,37.6,30.2,08.2,0000.0,0008.88,0004.01,0002.27
2022-03-21 04:51:00,,0817.1,5.02,0.00,28.5,27.5,00.0,37.6,30.2,08.2,0000.0,0009.15,0004.10,0002.30
2022-03-21 04:52:00,,0817.2,4.99,0.00,28.5,27.5,00.0,37.6,30.2,08.2,0000.0,0008.86,0004.05,0002.31
2022-03-21 04:53:00,,0817.1,5.00,0.00,28.5,27.5,00.0,37.6,30.2,08.3,0000.0,0008.90,0004.04,0002.32
2022-03-21 04:54:00,,0817.3,5.01,0.00,28.5,27.5,00.0,37.6,30.2,08.3,0000.0,0009.27,0004.15,0002.31
2022-03-21 04:55:00,,0817.1,5.00,0.00,28.5,27.5,00.0,37.6,30.2,08.3,0000.0,0009.81,0004.17,0002.32
2022-03-21 04:56:00,,0816.9,4.99,0.00,28.5,27.5,00.0,37.6,30.2,08.3,0000.0,0010.19,0004.18,0002.33
2022-03-21 04:57:00,,0817.0,4.99,0.00,28.5,27.5,00.0,37.6,30.2,08.3,0000.0,0010.18,0004.14,0002.31
2022-03-21 04:58:00,,0817.0,5.02,0.00,28.5,27.5,00.0,37.5,30.1,08.4,0000.0,0010.13,0004.12,0002.31
2022-03-21 04:59:00,,0817.0,5.00,0.00,28.5,27.5,00.0,37.5,30.1,08.4,0000.0,0010.25,0004.15,0002.32
